EN

Hourly Weather Abercarn

Today, 25 June, Friday

Time Temperature Precipitation Wind Pressure Humidity
00:00 +13°C° 0 mm 3 mps 746 mmHg 90%
01:00 +13°C° 0.6 mm 3 mps 745 mmHg 92%
02:00 +13°C° 0.6 mm 3 mps 745 mmHg 95%
03:00 +13°C° 0.6 mm 3 mps 745 mmHg 97%
04:00 +13°C° 0.2 mm 3 mps 745 mmHg 95%
05:00 +12°C° 0.2 mm 3 mps 745 mmHg 93%
06:00 +12°C° 0 mm 4 mps 745 mmHg 90%
07:00 +12°C° 0 mm 4 mps 745 mmHg 86%
08:00 +12°C° 0 mm 4 mps 745 mmHg 81%
09:00 +12°C° 0 mm 5 mps 745 mmHg 77%
10:00 +13°C° 0 mm 5 mps 745 mmHg 75%
11:00 +14°C° 0 mm 5 mps 745 mmHg 73%
12:00 +15°C° 0 mm 5 mps 745 mmHg 71%
13:00 +15°C° 0 mm 5 mps 744 mmHg 71%
14:00 +15°C° 0 mm 6 mps 744 mmHg 71%
15:00 +15°C° 0 mm 6 mps 744 mmHg 71%
16:00 +14°C° 0.1 mm 5 mps 744 mmHg 75%
17:00 +14°C° 0.1 mm 5 mps 743 mmHg 78%
18:00 +13°C° 0.1 mm 4 mps 743 mmHg 81%
19:00 +12°C° 0.1 mm 4 mps 743 mmHg 84%
20:00 +11°C° 0.1 mm 4 mps 744 mmHg 87%
21:00 +10°C° 0.1 mm 4 mps 744 mmHg 90%
22:00 +10°C° 0.1 mm 4 mps 744 mmHg 92%
23:00 +10°C° 0.1 mm 4 mps 744 mmHg 93%

Tomorrow, 26 June, Saturday

Time Temperature Precipitation Wind Pressure Humidity
00:00 +9°C° 0.1 mm 3 mps 744 mmHg 94%
01:00 +9°C° 0.1 mm 3 mps 744 mmHg 95%
02:00 +9°C° 0.1 mm 3 mps 744 mmHg 95%
03:00 +9°C° 0.1 mm 3 mps 744 mmHg 96%
04:00 +10°C° 0.2 mm 3 mps 744 mmHg 96%
05:00 +10°C° 0.2 mm 3 mps 744 mmHg 96%
06:00 +10°C° 0.2 mm 3 mps 745 mmHg 96%
07:00 +11°C° 0.1 mm 3 mps 745 mmHg 94%
08:00 +11°C° 0.1 mm 3 mps 745 mmHg 93%
09:00 +12°C° 0.1 mm 4 mps 745 mmHg 91%
10:00 +13°C° 0.2 mm 4 mps 745 mmHg 86%
11:00 +14°C° 0.2 mm 4 mps 745 mmHg 81%
12:00 +15°C° 0.2 mm 4 mps 745 mmHg 76%
13:00 +17°C° 0.1 mm 4 mps 745 mmHg 71%
14:00 +18°C° 0.1 mm 4 mps 745 mmHg 65%
15:00 +19°C° 0.1 mm 4 mps 745 mmHg 60%
16:00 +18°C° 0 mm 3 mps 745 mmHg 64%
17:00 +18°C° 0 mm 3 mps 745 mmHg 67%
18:00 +18°C° 0 mm 3 mps 745 mmHg 71%
19:00 +16°C° 0 mm 2 mps 745 mmHg 76%
20:00 +15°C° 0 mm 2 mps 745 mmHg 81%
21:00 +13°C° 0 mm 1 mps 745 mmHg 86%
22:00 +13°C° 0 mm 2 mps 745 mmHg 88%
23:00 +11°C° 0 mm 3 mps 745 mmHg 90%

Day after tomorrow, 27 June, Sunday

Time Temperature Precipitation Wind Pressure Humidity
00:00 +11°C° 0 mm 3 mps 745 mmHg 92%
01:00 +11°C° 0 mm 3 mps 745 mmHg 93%
02:00 +11°C° 0 mm 4 mps 745 mmHg 94%
03:00 +11°C° 0 mm 4 mps 745 mmHg 95%
04:00 +11°C° 0 mm 4 mps 745 mmHg 94%
05:00 +12°C° 0 mm 5 mps 745 mmHg 93%
06:00 +12°C° 0 mm 5 mps 745 mmHg 92%
07:00 +13°C° 0 mm 6 mps 745 mmHg 90%
08:00 +13°C° 0 mm 6 mps 745 mmHg 88%
09:00 +14°C° 0 mm 7 mps 745 mmHg 86%
10:00 +15°C° 0 mm 7 mps 744 mmHg 85%
11:00 +15°C° 0 mm 7 mps 744 mmHg 84%
12:00 +16°C° 0 mm 7 mps 744 mmHg 83%
13:00 +16°C° 0.1 mm 6 mps 744 mmHg 82%
14:00 +17°C° 0.1 mm 6 mps 744 mmHg 82%
15:00 +19°C° 0.1 mm 6 mps 743 mmHg 81%
16:00 +17°C° 0.8 mm 6 mps 743 mmHg 84%
17:00 +17°C° 0.8 mm 6 mps 743 mmHg 87%
18:00 +17°C° 0.8 mm 6 mps 743 mmHg 90%
19:00 +16°C° 1.1 mm 6 mps 743 mmHg 92%
20:00 +15°C° 1.1 mm 5 mps 743 mmHg 94%
21:00 +15°C° 1.1 mm 5 mps 743 mmHg 96%
22:00 +15°C° 0.5 mm 5 mps 743 mmHg 96%
23:00 +14°C° 0.5 mm 6 mps 743 mmHg 96%

28 June, Monday

Time Temperature Precipitation Wind Pressure Humidity
00:00 +14°C° 0.5 mm 6 mps 742 mmHg 96%
01:00 +13°C° 0.7 mm 6 mps 742 mmHg 96%
02:00 +13°C° 0.7 mm 6 mps 742 mmHg 96%
03:00 +13°C° 0.7 mm 6 mps 742 mmHg 96%
04:00 +13°C° 0.2 mm 6 mps 742 mmHg 96%
05:00 +13°C° 0.2 mm 5 mps 742 mmHg 96%
06:00 +12°C° 0.2 mm 5 mps 742 mmHg 96%
07:00 +13°C° 0.8 mm 5 mps 742 mmHg 96%
08:00 +13°C° 0.8 mm 5 mps 743 mmHg 96%
09:00 +13°C° 0.8 mm 4 mps 743 mmHg 96%
10:00 +13°C° 1.1 mm 4 mps 743 mmHg 96%
11:00 +13°C° 1.1 mm 4 mps 743 mmHg 96%
12:00 +13°C° 1.1 mm 4 mps 743 mmHg 96%
13:00 +13°C° 0.5 mm 4 mps 743 mmHg 96%
14:00 +13°C° 0.5 mm 4 mps 743 mmHg 95%
15:00 +13°C° 0.5 mm 4 mps 743 mmHg 95%
16:00 +13°C° 0.6 mm 3 mps 743 mmHg 96%
17:00 +13°C° 0.6 mm 3 mps 744 mmHg 96%
18:00 +13°C° 0.6 mm 3 mps 744 mmHg 97%
19:00 +13°C° 0.5 mm 3 mps 744 mmHg 97%
20:00 +13°C° 0.5 mm 3 mps 744 mmHg 97%
21:00 +13°C° 0.5 mm 3 mps 744 mmHg 97%
22:00 +13°C° 0.4 mm 3 mps 744 mmHg 97%
23:00 +13°C° 0.4 mm 3 mps 744 mmHg 97%

29 June, Tuesday

Time Temperature Precipitation Wind Pressure Humidity
00:00 +13°C° 0.4 mm 2 mps 745 mmHg 97%
01:00 +13°C° 0.2 mm 2 mps 744 mmHg 97%
02:00 +13°C° 0.2 mm 2 mps 744 mmHg 97%
03:00 +13°C° 0.2 mm 2 mps 744 mmHg 97%
04:00 +13°C° 0.5 mm 1 mps 745 mmHg 96%
05:00 +13°C° 0.5 mm 1 mps 745 mmHg 96%
06:00 +14°C° 0.5 mm 1 mps 745 mmHg 96%
07:00 +15°C° 0.1 mm 1 mps 745 mmHg 93%
08:00 +16°C° 0.1 mm 1 mps 745 mmHg 90%
09:00 +18°C° 0.1 mm 1 mps 745 mmHg 86%
10:00 +18°C° 0.4 mm 2 mps 745 mmHg 84%
11:00 +18°C° 0.4 mm 2 mps 745 mmHg 82%
12:00 +19°C° 0.4 mm 2 mps 746 mmHg 79%
13:00 +19°C° 0.5 mm 2 mps 746 mmHg 78%
14:00 +21°C° 0.5 mm 1 mps 746 mmHg 77%
15:00 +21°C° 0.5 mm 1 mps 745 mmHg 77%
16:00 +21°C° 0.7 mm 1 mps 746 mmHg 78%
17:00 +20°C° 0.7 mm 1 mps 746 mmHg 80%
18:00 +20°C° 0.7 mm 1 mps 746 mmHg 81%
19:00 +19°C° 0.5 mm 1 mps 746 mmHg 84%
20:00 +16°C° 0.5 mm 1 mps 746 mmHg 88%
21:00 +15°C° 0.5 mm 1 mps 746 mmHg 91%
22:00 +15°C° 0.1 mm 1 mps 746 mmHg 92%
23:00 +14°C° 0.1 mm 1 mps 746 mmHg 92%

30 June, Wednesday

Time Temperature Precipitation Wind Pressure Humidity
00:00 +14°C° 0.1 mm 1 mps 746 mmHg 93%
01:00 +13°C° 0 mm 1 mps 746 mmHg 94%
02:00 +13°C° 0 mm 1 mps 746 mmHg 94%
03:00 +13°C° 0 mm 1 mps 746 mmHg 94%
04:00 +13°C° 0 mm 1 mps 746 mmHg 94%
05:00 +14°C° 0 mm 1 mps 746 mmHg 93%
06:00 +15°C° 0 mm 1 mps 747 mmHg 93%
07:00 +16°C° 0 mm 1 mps 747 mmHg 90%
08:00 +17°C° 0 mm 2 mps 747 mmHg 86%
09:00 +18°C° 0 mm 2 mps 747 mmHg 83%
10:00 +18°C° 0.1 mm 2 mps 747 mmHg 79%
11:00 +19°C° 0.1 mm 2 mps 747 mmHg 75%
12:00 +20°C° 0.1 mm 2 mps 747 mmHg 70%
13:00 +20°C° 0 mm 2 mps 747 mmHg 68%
14:00 +21°C° 0 mm 2 mps 746 mmHg 65%
15:00 +21°C° 0 mm 2 mps 746 mmHg 62%
16:00 +21°C° 0 mm 2 mps 746 mmHg 66%
17:00 +20°C° 0 mm 2 mps 746 mmHg 69%
18:00 +20°C° 0 mm 2 mps 746 mmHg 73%
19:00 +18°C° 0.1 mm 2 mps 746 mmHg 76%
20:00 +18°C° 0.1 mm 1 mps 747 mmHg 79%
21:00 +15°C° 0.1 mm 1 mps 747 mmHg 81%
22:00 +15°C° 0 mm 1 mps 747 mmHg 83%
23:00 +14°C° 0 mm 1 mps 747 mmHg 84%
Show more